Location: Unspecified
(50.7693°N, 0.0000°E)
Time: 11:19:08
(UTC+00:00)

SR - Pass Details

Date: 02 July 2019
Orbit: 578 x 878 km, 66.7° (Epoch: 16 August)

Event Time Altitude Azimuth Distance (km) Brightness Sun altitude
Rises 01:40:04 0° 213° (SSW) 2,784 - -13.2°
Reaches altitude 10° 01:42:16 10° 213° (SSW) 1,894 - -13.0°
Exits shadow 01:43:37 20° 212° (SSW) 1,359 ? -13.0°
Maximum altitude 01:46:29 84° 127° (SE) 604 ? -12.8°
Drops below altitude 10° 01:50:55 10° 39° (NE) 1,989 ? -12.5°
Sets 01:53:16 0° 38° (NE) 2,938 ? -12.3°
